Precipitable_Water
0.77 0.72 0.69 0.63 0.58 0.59 0.58 0.61 0.62 0.59 0.59 0.52 0.43 0.38 0.35 0.31 0.28 0.25 0.23 0.23 0.21 0.20 0.20 0.18 0.18 0.21 0.23 0.26 0.29 0.31 0.33 0.36 0.33 0.43 0.52 0.55 0.54 0.53 0.54 0.57 0.59 0.57 0.61
0.79 0.72 0.67 0.60 0.59 0.60 0.62 0.66 0.63 0.61 0.57 0.45 0.40 0.36 0.33 0.29 0.27 0.24 0.22 0.21 0.20 0.19 0.17 0.16 0.17 0.17 0.20 0.23 0.26 0.27 0.29 0.33 0.31 0.33 0.45 0.51 0.52 0.54 0.53 0.53 0.55 0.57 0.55
0.77 0.72 0.63 0.61 0.61 0.62 0.68 0.70 0.69 0.62 0.50 0.46 0.39 0.34 0.30 0.27 0.25 0.24 0.22 0.20 0.20 0.19 0.18 0.17 0.17 0.16 0.17 0.20 0.22 0.24 0.28 0.30 0.31 0.29 0.31 0.42 0.50 0.53 0.51 0.53 0.53 0.54 0.55
0.75 0.71 0.60 0.61 0.63 0.70 0.75 0.76 0.66 0.55 0.50 0.45 0.40 0.32 0.28 0.25 0.24 0.24 0.24 0.22 0.20 0.20 0.20 0.19 0.18 0.17 0.17 0.18 0.19 0.21 0.24 0.26 0.27 0.27 0.25 0.28 0.33 0.42 0.49 0.47 0.47 0.51 0.51
0.73 0.69 0.62 0.63 0.72 0.80 0.80 0.68 0.60 0.58 0.53 0.46 0.38 0.30 0.26 0.25 0.24 0.23 0.23 0.23 0.22 0.21 0.20 0.19 0.20 0.20 0.19 0.19 0.18 0.18 0.20 0.20 0.21 0.21 0.21 0.22 0.24 0.25 0.26 0.35 0.43 0.47 0.47
0.74 0.69 0.65 0.72 0.79 0.78 0.72 0.62 0.62 0.61 0.55 0.47 0.38 0.28 0.25 0.24 0.25 0.23 0.23 0.22 0.23 0.21 0.19 0.18 0.19 0.20 0.19 0.18 0.19 0.19 0.19 0.16 0.15 0.15 0.16 0.17 0.18 0.20 0.23 0.22 0.20 0.23 0.25
0.78 0.72 0.67 0.74 0.76 0.73 0.67 0.69 0.61 0.59 0.53 0.45 0.35 0.29 0.25 0.22 0.25 0.24 0.23 0.23 0.22 0.21 0.20 0.18 0.16 0.17 0.18 0.19 0.18 0.19 0.20 0.20 0.19 0.17 0.15 0.17 0.18 0.20 0.21 0.21 0.22 0.19 0.20
0.75 0.72 0.69 0.72 0.72 0.67 0.64 0.66 0.56 0.55 0.49 0.41 0.34 0.30 0.24 0.22 0.25 0.24 0.23 0.22 0.21 0.20 0.19 0.16 0.14 0.16 0.18 0.18 0.19 0.18 0.19 0.20 0.21 0.21 0.19 0.19 0.19 0.20 0.22 0.24 0.23 0.21 0.20
0.69 0.69 0.69 0.70 0.67 0.63 0.63 0.57 0.54 0.52 0.47 0.39 0.33 0.26 0.21 0.23 0.25 0.25 0.23 0.22 0.20 0.18 0.16 0.15 0.16 0.18 0.20 0.18 0.16 0.16 0.18 0.20 0.23 0.24 0.24 0.22 0.20 0.18 0.19 0.22 0.22 0.22 0.15
0.68 0.68 0.68 0.68 0.63 0.58 0.60 0.53 0.53 0.51 0.44 0.36 0.29 0.25 0.21 0.23 0.25 0.25 0.27 0.25 0.21 0.18 0.17 0.16 0.17 0.17 0.17 0.18 0.17 0.17 0.16 0.18 0.19 0.18 0.17 0.18 0.18 0.18 0.17 0.16 0.15 0.15 0.16
0.64 0.62 0.63 0.62 0.56 0.54 0.63 0.55 0.52 0.47 0.41 0.33 0.28 0.27 0.26 0.23 0.24 0.26 0.28 0.27 0.23 0.19 0.18 0.16 0.16 0.16 0.16 0.16 0.17 0.17 0.18 0.21 0.20 0.19 0.17 0.15 0.16 0.18 0.18 0.18 0.18 0.15 0.14
0.64 0.61 0.57 0.54 0.53 0.57 0.63 0.52 0.48 0.44 0.36 0.31 0.27 0.27 0.27 0.25 0.23 0.25 0.28 0.25 0.24 0.20 0.18 0.18 0.16 0.16 0.16 0.17 0.18 0.20 0.21 0.21 0.21 0.19 0.18 0.17 0.16 0.16 0.18 0.19 0.18 0.17 0.16
0.65 0.60 0.57 0.55 0.54 0.59 0.60 0.48 0.45 0.40 0.33 0.29 0.27 0.26 0.27 0.26 0.24 0.23 0.23 0.22 0.23 0.21 0.20 0.19 0.15 0.16 0.17 0.17 0.18 0.19 0.20 0.20 0.19 0.18 0.18 0.17 0.17 0.17 0.18 0.19 0.20 0.19 0.18
0.68 0.64 0.64 0.60 0.60 0.61 0.52 0.45 0.42 0.38 0.32 0.29 0.28 0.27 0.28 0.26 0.25 0.21 0.18 0.19 0.20 0.20 0.20 0.15 0.16 0.18 0.18 0.18 0.18 0.18 0.19 0.20 0.19 0.19 0.19 0.19 0.20 0.19 0.17 0.18 0.18 0.18 0.17
0.65 0.65 0.62 0.61 0.58 0.50 0.47 0.44 0.41 0.38 0.34 0.31 0.30 0.30 0.28 0.25 0.24 0.22 0.18 0.16 0.17 0.16 0.13 0.14 0.16 0.17 0.18 0.18 0.18 0.18 0.19 0.19 0.18 0.19 0.19 0.19 0.18 0.18 0.18 0.18 0.18 0.17 0.15
0.59 0.57 0.56 0.52 0.48 0.46 0.44 0.42 0.43 0.41 0.38 0.37 0.36 0.35 0.33 0.30 0.27 0.24 0.21 0.18 0.18 0.19 0.16 0.15 0.17 0.18 0.18 0.18 0.18 0.18 0.18 0.17 0.18 0.19 0.19 0.19 0.18 0.18 0.18 0.18 0.18 0.17 0.15
0.52 0.50 0.48 0.47 0.46 0.44 0.42 0.39 0.36 0.38 0.38 0.38 0.38 0.35 0.33 0.30 0.28 0.26 0.25 0.24 0.22 0.20 0.16 0.17 0.18 0.18 0.18 0.19 0.19 0.18 0.17 0.17 0.19 0.20 0.19 0.18 0.19 0.19 0.18 0.17 0.16 0.15 0.15
0.49 0.47 0.46 0.44 0.42 0.40 0.38 0.36 0.36 0.35 0.33 0.34 0.36 0.33 0.31 0.30 0.28 0.27 0.26 0.24 0.20 0.18 0.16 0.20 0.20 0.20 0.19 0.18 0.18 0.17 0.17 0.18 0.20 0.20 0.19 0.18 0.19 0.18 0.16 0.16 0.16 0.14 0.14
0.43 0.42 0.42 0.42 0.42 0.40 0.40 0.38 0.36 0.35 0.33 0.31 0.31 0.30 0.30 0.29 0.28 0.26 0.25 0.22 0.20 0.17 0.18 0.21 0.22 0.21 0.19 0.19 0.19 0.18 0.19 0.19 0.19 0.19 0.19 0.18 0.17 0.17 0.16 0.15 0.15 0.14 0.14
0.43 0.43 0.43 0.41 0.40 0.39 0.39 0.37 0.36 0.35 0.32 0.30 0.28 0.27 0.28 0.27 0.25 0.24 0.23 0.21 0.20 0.19 0.21 0.21 0.22 0.21 0.20 0.19 0.18 0.18 0.17 0.17 0.18 0.19 0.18 0.17 0.16 0.16 0.15 0.15 0.14 0.13 0.13
0.45 0.45 0.45 0.43 0.41 0.40 0.38 0.37 0.36 0.34 0.32 0.31 0.30 0.31 0.30 0.28 0.27 0.26 0.24 0.23 0.25 0.25 0.23 0.22 0.22 0.20 0.20 0.19 0.19 0.18 0.18 0.19 0.19 0.19 0.17 0.16 0.15 0.15 0.14 0.14 0.14 0.13 0.13
0.44 0.44 0.44 0.43 0.42 0.40 0.38 0.38 0.37 0.35 0.34 0.33 0.33 0.33 0.32 0.30 0.29 0.28 0.26 0.25 0.26 0.27 0.25 0.24 0.22 0.21 0.20 0.18 0.17 0.18 0.19 0.19 0.18 0.17 0.16 0.15 0.15 0.15 0.14 0.14 0.13 0.13 0.12
0.45 0.44 0.42 0.41 0.40 0.39 0.39 0.39 0.38 0.37 0.36 0.35 0.36 0.34 0.33 0.31 0.30 0.29 0.28 0.28 0.28 0.26 0.26 0.24 0.22 0.20 0.19 0.18 0.20 0.21 0.20 0.19 0.18 0.17 0.16 0.15 0.14 0.14 0.13 0.13 0.12 0.12 0.11
0.43 0.41 0.40 0.40 0.41 0.41 0.40 0.39 0.38 0.38 0.36 0.35 0.34 0.32 0.31 0.30 0.30 0.29 0.29 0.29 0.28 0.26 0.24 0.23 0.22 0.22 0.21 0.20 0.20 0.20 0.20 0.19 0.18 0.16 0.15 0.14 0.13 0.13 0.12 0.12 0.12 0.11 0.11
0.43 0.42 0.42 0.42 0.41 0.40 0.39 0.38 0.37 0.36 0.35 0.34 0.33 0.33 0.32 0.30 0.29 0.30 0.29 0.28 0.26 0.24 0.24 0.24 0.23 0.21 0.19 0.20 0.20 0.19 0.19 0.18 0.17 0.15 0.14 0.13 0.13 0.12 0.11 0.11 0.11 0.10 0.10
0.44 0.43 0.42 0.41 0.39 0.38 0.37 0.35 0.35 0.35 0.34 0.33 0.32 0.31 0.30 0.29 0.29 0.28 0.27 0.27 0.26 0.25 0.24 0.23 0.22 0.20 0.21 0.21 0.20 0.19 0.18 0.17 0.15 0.14 0.14 0.13 0.12 0.12 0.12 0.11 0.11 0.10 0.10
Wind_Speed
27 28 28 28 27 26 25 24 22 21 21 21 20 18 17 16 17 18 18 18 20 21 22 22 22 21 20 18 19 19 19 20 19 18 17 16 15 16 14 11 9 10 12
27 28 28 29 28 27 25 23 22 21 21 19 17 16 16 16 17 17 17 18 19 19 20 19 19 19 17 17 17 17 18 18 17 18 17 16 15 14 13 10 8 8 10
26 27 30 30 29 28 26 24 22 20 18 16 15 15 15 16 16 16 16 17 18 18 18 17 17 17 16 16 16 16 17 17 16 16 16 16 15 14 12 10 8 9 9
27 28 30 31 30 28 26 24 21 17 16 16 15 15 15 15 15 16 16 16 17 17 16 15 15 15 15 15 15 15 15 15 15 15 15 15 15 15 13 12 9 9 8
27 29 31 31 30 27 23 20 19 17 16 16 15 15 15 15 15 15 15 16 16 15 15 14 14 14 14 15 14 14 14 14 14 14 14 14 14 14 14 14 11 8 9
28 28 30 29 27 25 24 22 20 18 17 16 14 15 15 15 15 14 15 15 15 14 13 13 14 14 14 14 14 14 13 13 13 13 13 13 14 14 14 14 13 10 9
26 29 30 28 26 24 22 21 20 18 17 15 14 15 15 14 14 14 15 15 15 14 13 14 14 15 15 14 14 13 13 13 12 12 13 14 14 14 14 13 12 11 10
28 28 31 29 27 26 24 20 19 18 16 16 15 15 15 15 14 14 14 15 14 14 14 14 14 14 14 14 14 13 13 13 13 13 13 14 14 15 14 13 12 11 11
28 29 30 29 28 25 22 20 20 18 17 16 16 16 15 15 15 14 15 15 14 13 14 13 13 13 12 12 12 12 13 13 13 14 14 14 15 15 15 14 14 14 13
26 27 28 28 27 24 22 21 19 18 17 16 16 16 16 16 16 15 15 15 14 14 14 13 12 12 12 11 11 11 12 12 13 13 14 14 15 15 15 15 15 14 15
25 27 27 26 25 24 21 21 19 18 17 16 16 17 17 17 17 17 17 17 15 15 14 14 14 13 12 12 12 12 12 12 12 12 13 13 14 15 15 15 15 15 15
27 28 27 26 26 24 21 21 20 19 18 18 17 17 17 17 17 17 17 16 16 16 15 15 14 13 13 13 13 14 14 14 14 14 14 15 15 16 16 16 15 15 15
27 29 28 27 26 25 25 23 21 20 19 19 18 18 17 17 17 18 17 17 17 16 16 16 15 15 14 14 14 15 15 15 16 16 17 17 17 18 18 18 18 17 17
24 25 25 26 26 26 24 23 21 20 20 19 19 18 17 17 18 18 18 18 17 18 17 17 17 17 16 16 17 17 17 17 17 18 18 19 19 20 20 20 20 19 19
23 23 21 21 22 22 22 21 20 20 19 19 19 18 18 18 19 19 18 19 19 19 19 19 19 19 19 19 18 19 19 19 19 20 20 21 21 22 22 22 22 22 21
19 20 20 20 20 20 20 19 19 19 19 19 19 19 20 20 20 19 19 19 20 20 20 21 22 22 22 21 20 20 21 21 21 22 22 23 23 24 23 24 24 24 23
20 20 19 19 19 19 19 18 17 18 18 18 19 20 21 21 20 20 21 21 21 21 22 23 23 23 22 22 22 22 23 23 23 23 24 24 24 25 25 25 25 25 24
19 19 19 19 19 18 18 19 18 18 18 19 20 21 21 21 21 21 22 22 23 24 24 24 23 23 23 23 23 23 23 24 24 25 25 25 25 26 26 26 25 25 24
18 18 18 18 18 18 18 18 19 19 20 20 20 21 22 22 23 24 24 25 25 25 24 24 24 24 24 23 24 24 24 25 25 25 25 26 26 26 26 26 25 24 23
17 18 18 18 18 18 18 18 19 20 20 21 22 22 23 24 24 25 25 24 23 24 24 23 23 23 24 24 25 25 25 25 25 26 26 26 26 26 25 24 24 23 22
16 17 17 18 18 19 19 19 20 20 21 21 22 23 24 24 24 24 23 24 24 23 23 23 23 23 23 24 24 24 25 25 26 26 26 26 25 25 24 23 23 22 22
16 17 17 18 18 19 19 20 20 21 21 22 22 22 22 22 22 22 23 23 23 22 22 22 22 23 24 24 24 24 25 25 26 26 25 25 24 23 22 22 21 21 21
17 17 17 18 19 19 20 20 21 21 21 21 21 21 21 21 21 21 21 21 21 20 20 21 22 22 22 23 24 24 25 25 25 24 24 23 23 22 22 21 21 21 22
16 17 18 18 19 20 21 21 21 22 21 21 20 20 21 21 20 20 20 20 20 20 20 21 22 23 23 24 24 24 23 23 23 23 23 22 22 22 22 22 23 23 23
14 14 15 16 17 19 19 20 20 21 21 20 20 20 20 19 19 19 19 20 20 21 22 22 23 23 23 23 23 23 23 22 22 22 22 22 22 23 23 24 24 25 25
12 14 15 16 17 18 19 19 19 19 19 18 18 18 19 19 19 19 20 21 22 22 23 23 23 23 23 23 23 22 22 22 23 23 23 23 24 24 24 25 25 26 26
Wind_Direction
234 233 231 230 230 233 236 242 249 257 270 274 276 278 281 286 292 297 302 307 312 317 320 323 326 328 327 329 331 332 335 338 340 342 340 341 341 343 334 331 329 344 356
234 233 229 227 229 232 236 241 250 261 269 270 271 274 279 285 291 296 302 307 312 317 321 324 326 328 328 329 332 335 337 342 343 348 351 347 347 346 353 348 339 339 347
236 232 228 227 228 232 236 243 253 261 259 264 268 274 277 284 290 296 301 306 311 316 318 322 325 328 329 329 331 335 338 342 347 349 351 354 354 352 347 346 343 339 345
235 232 227 227 228 232 238 247 250 243 252 259 267 273 278 285 291 294 299 305 310 313 315 317 321 327 330 330 331 333 336 342 346 349 352 356 356 360 357 349 340 347 340
234 230 227 227 230 232 231 237 234 242 252 259 266 272 278 285 290 293 297 302 307 308 310 313 316 323 327 330 329 331 334 337 340 345 347 350 355 357 358 358 351 337 346
234 228 221 224 226 228 232 232 234 242 252 258 265 272 281 284 288 289 297 301 302 302 304 307 311 315 318 323 327 331 330 333 338 337 342 343 343 346 350 351 355 349 340
229 223 221 224 224 227 222 229 233 242 248 255 264 273 281 283 285 290 294 296 298 297 297 302 306 309 312 311 317 321 326 330 332 333 337 338 337 335 335 339 346 349 345
232 226 222 222 223 222 221 231 233 240 247 256 266 273 277 279 281 288 291 294 294 293 294 300 304 308 310 311 312 313 314 316 321 325 327 328 331 330 325 323 323 331 335
229 222 219 217 215 218 226 229 235 242 248 257 266 270 273 276 279 282 287 290 291 290 292 296 300 305 310 315 316 319 318 315 314 317 319 324 328 331 329 314 315 308 310
218 213 210 212 216 221 229 232 238 243 248 258 263 268 270 273 274 278 280 286 286 285 288 292 296 301 305 309 312 317 322 321 322 322 320 319 322 326 329 327 318 311 302
210 209 211 215 220 225 229 231 238 241 248 257 262 265 269 271 273 275 279 280 280 279 280 285 290 294 299 302 305 309 313 316 321 325 328 329 329 329 329 326 323 318 310
214 216 218 221 225 225 227 232 235 241 249 257 259 263 266 270 270 273 279 277 276 273 275 280 285 288 293 295 298 303 306 307 309 313 317 320 323 324 324 325 326 325 320
217 218 224 225 225 227 227 231 236 244 251 254 255 260 262 268 272 272 275 276 274 272 272 275 278 281 287 292 297 298 301 301 303 305 308 311 311 314 316 315 314 315 316
218 215 221 225 219 217 225 231 239 244 250 252 255 257 261 265 271 275 274 273 273 272 271 272 276 279 282 287 291 295 297 299 300 301 303 304 305 308 309 309 309 305 306
218 218 214 219 219 224 229 235 242 247 250 252 255 257 259 265 268 271 272 272 272 272 271 271 274 277 280 283 286 290 293 296 298 299 299 301 302 303 304 303 304 303 301
211 216 222 223 223 228 232 239 245 249 252 254 257 260 264 267 266 267 270 270 270 270 272 272 273 275 277 278 282 286 290 292 295 296 296 297 299 300 300 300 299 299 298
220 222 225 226 227 231 235 240 244 248 252 258 262 265 265 266 264 265 268 270 271 272 274 273 273 274 276 277 279 283 287 289 292 294 295 295 296 297 298 298 298 295 294
221 223 225 226 230 234 238 242 245 250 258 264 265 267 267 265 264 265 268 271 272 273 273 275 272 273 275 277 279 282 285 288 291 293 294 294 295 296 296 297 296 295 292
223 224 226 231 234 237 240 244 250 256 261 264 267 268 267 266 267 268 269 273 272 272 270 274 273 274 274 275 279 282 284 287 289 291 293 294 294 296 295 295 294 293 292
225 224 226 230 235 240 246 251 256 260 263 265 268 268 267 269 269 270 271 271 271 272 271 272 274 274 274 276 279 282 285 287 289 290 292 293 294 294 294 294 293 292 291
227 231 234 239 244 248 251 255 259 263 265 268 269 269 268 269 269 268 269 269 271 273 271 273 274 274 276 277 280 282 284 286 288 291 292 293 293 293 292 292 291 291 290
235 239 242 245 249 251 255 258 262 265 267 270 271 269 268 270 269 269 270 271 270 273 272 272 274 276 277 279 281 282 285 286 289 290 291 292 291 291 291 291 291 291 290
245 247 249 251 253 256 259 261 264 267 269 269 268 268 267 269 270 269 270 271 271 272 273 275 276 278 280 281 283 282 285 287 287 288 289 290 290 290 289 290 290 290 291
247 250 252 255 256 259 261 263 265 267 268 268 267 267 268 269 269 270 269 268 270 274 275 277 278 279 281 282 283 284 285 285 286 288 288 287 288 288 289 289 289 290 290
249 252 255 256 259 261 263 265 267 267 267 268 267 267 268 267 269 270 268 268 272 276 278 280 280 280 280 282 283 283 284 284 285 287 287 287 287 288 289 289 289 289 290
255 260 262 262 263 265 266 267 267 266 266 266 267 267 267 268 270 272 270 272 276 278 280 282 281 281 281 282 282 282 282 284 285 286 286 288 288 289 289 289 290 290 290